Dauntless Aviation
Airports North America United States Texas
63TE

FLYING S RANCH AIRPORT

KENNARD, TX, USA

Airport Info
Suggest Updated Information for this Airport

Location

Latitude / Longitude: 35°35'14"N / 77°22'21"W
  35°35.2333'N / 77°22.3667'W
  31.3535 / -95.2058
Elevation: 370 ft. (estimated)
Variation: 06E (1985)
From city: 01 miles SW of KENNARD, TX

Operations

Facility use: Private
Sectional chart: HOUSTON
Control tower: no
Boundary ARTCC: HOUSTON
FSS: MONTGOMERY COUNTY [1-800-WX-BRIEF]
Segmented circle: no

Communications

Nearby radio navigation aids

VOR radial/distance VOR name Freq Var
LFK 295oT/27.6 LUFKIN VORTAC 112.10 05E
 
NDB name Hdg/Dist Freq Var ID
NADOS 252oT/26.1 253 05E OC
CHEROKEE COUNTY 179oT/31.0 263 05E JSO
NACOGDOCHES 235oT/31.1 391 05E GXD
PALESTINE 135oT/36.0 375 04E PSN

Services

Runway Information

Runway 14/32

Dimensions: 2000 x 100 ft.
Surface: NATURAL SOIL,NO SPECIAL SURFACE TREATMENT
 
Runway 14
Runway 32
 

Additional Remarks

Instrument Procedures

No published instrument procedures available
Topographic chart at:
Satellite photo at:
Airport distance calculator
From:
Weather Reports

METAR

KDKR
10.5nm SW
KDKR 241515Z AUTO 18009G15KT 10SM CLR 14/12 A2984 RMK AO2
KLFK
24.5nm E
KLFK 241453Z AUTO 14006KT 10SM CLR 12/11 A2983 RMK AO2 SLP099 T01170106 53008
KOCH
28.1nm NE
KOCH 241515Z 18008KT 13/11 A2982 RMK AO1
KJSO
30.8nm NW
KJSO 241515Z AUTO 20008KT 10SM CLR 12/09 A2982 RMK AO2 T01210094
KPSN
36.1nm NW
KPSN 241515Z AUTO 19011KT 10SM CLR 15/12 A2982 RMK AO2 T01470123

TAF

KLFK
24.5nm E
KLFK 241140Z 2412/2512 13004KT P6SM SKC FM241400 16008KT P6SM SKC FM241900 17012G18KT P6SM SKC FM250100 17010KT P6SM BKN020 FM250600 17006KT P6SM OVC007 FM250900 20006KT 2SM BR OVC007
Safelog

 

Dauntless Aviation

© 2007-2017 Dauntless Aviation, all rights reserved
Information provided via PilotNav comes from a variety of official and unofficial data sources. As errors are possible, do not use PilotNav for primary flight planning purposes. Verify any information that you receive via PilotNav with current and canonical charts and other official documents. The material in this database is subject to database copyrights held by Dauntless Aviation and may not be copied without the express permission of Dauntless Aviation - licenses for use of part of all of this data are available for purchase; enquire via the Dauntless Aviation helpdesk. A number of mechanisms and markers exist in the database to protect against and identify infringement / copyright. Automated queries against this website are stictly prohibited, and all activity is logged and analyzed.